Zurück zum Katalog

TITAN 3C TRANSTAGE R/B

AktivGEO
NORAD 3432·ROCKET BODY·🇺🇸 United States

Gestartet Sep 26, 1968 von Cape Canaveral Space Force Station

Loading…

TLE

AktuellSource: Space-Track

Epoche: Sep 14, 2026, 10:10 UTC

1 03432U 68081E   26257.42406449 -.00000121  00000-0  00000-0 0  9995
2 03432   2.1484  52.4775 0092571 276.6246 133.1318  1.01517065122898

Verfolge TITAN 3C TRANSTAGE R/B in Echtzeit mit AllMySat

Download on the App Store